Вернуться в каталог

USA 449

АктивенВоенныеVLEO
NORAD 62348·PAYLOAD·🇺🇸 United States

Запущен Dec 17, 2024 с Vandenberg Space Force Base

Loading…

Ближайшие Пролёты (ближайшие 24 часа)

TLE

УстаревшееSource: Mike McCants

Эпоха: Aug 11, 2026, 22:36 UTC

1 62348U 24243J   26223.94216824 0.00000000  00000-0  00000-0 0    02
2 62348  70.0126 156.9518 0005000 351.3755   8.6245 14.96713151    03

Отслеживайте USA 449 в реальном времени с AllMySat

Download on the App Store